StationID,Date,MaxTemp,MinTemp,Precipitation,Snowfall,SnowDepth
"USR0000AUNI","1994-05-23",86.00,73.94,,,
"USR0000AUNI","1994-05-24",82.04,57.92,,,
"USR0000AUNI","1994-05-25",69.08,55.04,,,
"USR0000AUNI","1994-05-26",80.96,55.94,,,
"USR0000AUNI","1994-05-27",86.00,64.04,,,
"USR0000AUNI","1994-05-28",89.06,64.94,,,
"USR0000AUNI","1994-05-29",91.94,71.06,,,
"USR0000AUNI","1994-05-30",91.94,71.96,,,
"USR0000AUNI","1994-05-31",87.08,71.06,,,
"USR0000AUNI","1994-06-01",93.02,68.00,,,
"USR0000AUNI","1994-06-02",96.08,77.00,,,
"USR0000AUNI","1994-06-03",91.04,71.96,,,
"USR0000AUNI","1994-06-04",89.96,73.04,,,
"USR0000AUNI","1994-06-05",89.06,71.06,,,
"USR0000AUNI","1994-06-06",86.00,69.08,,,
"USR0000AUNI","1994-06-07",84.02,68.00,,,
"USR0000AUNI","1994-06-08",91.94,66.92,,,
"USR0000AUNI","1994-06-09",95.00,75.02,,,
"USR0000AUNI","1994-06-10",98.96,78.08,,,
"USR0000AUNI","1994-06-11",95.00,78.98,,,
"USR0000AUNI","1994-06-12",93.92,71.96,,,
"USR0000AUNI","1994-06-13",91.94,75.02,,,
"USR0000AUNI","1994-06-14",87.98,73.04,,,
"USR0000AUNI","1994-06-15",84.92,69.08,,,
"USR0000AUNI","1994-06-16",87.98,69.98,,,
"USR0000AUNI","1994-06-17",91.04,73.94,,,
"USR0000AUNI","1994-06-18",91.94,73.04,,,
"USR0000AUNI","1994-06-19",95.00,71.06,,,
"USR0000AUNI","1994-06-20",84.92,73.94,,,
"USR0000AUNI","1994-06-21",93.92,66.92,,,
"USR0000AUNI","1994-06-22",96.08,75.02,,,
"USR0000AUNI","1994-06-23",100.04,78.98,,,
"USR0000AUNI","1994-06-24",102.92,80.06,,,
"USR0000AUNI","1994-06-25",102.02,87.08,,,
"USR0000AUNI","1994-06-26",105.08,86.00,,,
"USR0000AUNI","1994-06-27",107.06,89.96,,,
"USR0000AUNI","1994-06-28",105.98,87.98,,,
"USR0000AUNI","1994-06-29",107.06,87.98,,,
"USR0000AUNI","1994-06-30",105.08,87.98,,,
"USR0000AUNI","1994-07-01",102.02,82.94,,,
"USR0000AUNI","1994-07-02",98.96,84.02,,,
"USR0000AUNI","1994-07-03",93.92,75.92,,,
"USR0000AUNI","1994-07-04",91.94,71.96,,,
"USR0000AUNI","1994-07-05",91.94,73.04,,,
"USR0000AUNI","1994-07-06",96.08,71.06,,,
"USR0000AUNI","1994-07-07",96.98,77.00,,,
"USR0000AUNI","1994-07-08",100.94,80.96,,,
"USR0000AUNI","1994-07-09",98.06,78.98,,,
"USR0000AUNI","1994-07-10",98.06,78.98,,,
"USR0000AUNI","1994-07-11",98.06,78.08,,,
"USR0000AUNI","1994-07-12",98.06,75.92,,,
"USR0000AUNI","1994-07-13",98.96,78.08,,,
"USR0000AUNI","1994-07-14",96.08,78.98,,,
"USR0000AUNI","1994-07-15",96.08,75.02,,,
"USR0000AUNI","1994-07-16",95.00,78.08,,,
"USR0000AUNI","1994-07-17",93.02,71.96,,,
"USR0000AUNI","1994-07-18",86.00,66.02,,,
"USR0000AUNI","1994-07-19",86.00,66.02,,,
"USR0000AUNI","1994-07-20",87.98,68.00,,,
"USR0000AUNI","1994-07-21",95.00,75.02,,,
"USR0000AUNI","1994-07-22",96.98,82.04,,,
"USR0000AUNI","1994-07-23",95.00,80.06,,,
"USR0000AUNI","1994-07-24",96.98,77.00,,,
"USR0000AUNI","1994-07-25",98.96,78.98,,,
"USR0000AUNI","1994-07-26",98.96,80.06,,,
"USR0000AUNI","1994-07-27",98.96,84.02,,,
"USR0000AUNI","1994-07-28",100.04,78.98,,,
"USR0000AUNI","1994-07-29",95.00,75.02,,,
"USR0000AUNI","1994-07-30",93.92,77.00,,,
"USR0000AUNI","1994-07-31",96.08,77.00,,,
"USR0000AUNI","1994-08-01",98.06,78.08,,,
"USR0000AUNI","1994-08-02",100.04,80.06,,,
"USR0000AUNI","1994-08-03",100.04,80.96,,,
"USR0000AUNI","1994-08-04",100.94,80.96,,,
"USR0000AUNI","1994-08-05",102.02,82.94,,,
"USR0000AUNI","1994-08-06",100.04,71.96,,,
"USR0000AUNI","1994-08-07",96.98,78.98,,,
"USR0000AUNI","1994-08-08",84.92,75.92,,,
"USR0000AUNI","1994-08-09",91.04,71.96,,,
"USR0000AUNI","1994-08-10",96.08,75.92,,,
"USR0000AUNI","1994-08-11",102.02,82.04,,,
"USR0000AUNI","1994-08-12",93.92,78.08,,,
"USR0000AUNI","1994-08-13",93.92,78.08,,,
"USR0000AUNI","1994-08-14",98.96,80.06,,,
"USR0000AUNI","1994-08-15",100.94,78.08,,,
"USR0000AUNI","1994-08-16",96.08,80.06,,,
"USR0000AUNI","1994-08-17",89.96,75.92,,,
"USR0000AUNI","1994-08-18",95.00,75.92,,,
"USR0000AUNI","1994-08-19",95.00,75.92,,,
"USR0000AUNI","1994-08-20",96.08,77.00,,,
"USR0000AUNI","1994-08-21",93.92,78.98,,,
"USR0000AUNI","1994-08-22",91.04,73.04,,,
"USR0000AUNI","1994-08-23",93.92,73.94,,,
"USR0000AUNI","1994-08-24",98.06,78.98,,,
"USR0000AUNI","1994-08-25",96.08,77.00,,,
"USR0000AUNI","1994-08-26",91.04,75.92,,,
"USR0000AUNI","1994-08-27",91.94,71.96,,,
"USR0000AUNI","1994-08-28",96.08,75.02,,,
"USR0000AUNI","1994-08-29",96.08,78.98,,,
"USR0000AUNI","1994-08-30",93.02,75.02,,,
"USR0000AUNI","1994-08-31",91.04,75.02,,,
"USR0000AUNI","1994-09-01",91.04,73.04,,,
"USR0000AUNI","1994-09-02",93.02,75.92,,,
"USR0000AUNI","1994-09-03",87.08,71.06,,,
"USR0000AUNI","1994-09-04",89.96,73.04,,,
"USR0000AUNI","1994-09-05",93.92,73.04,,,
"USR0000AUNI","1994-09-06",95.00,75.92,,,
"USR0000AUNI","1994-09-07",96.98,78.08,,,
"USR0000AUNI","1994-09-08",95.00,78.98,,,
"USR0000AUNI","1994-09-09",93.02,75.92,,,
"USR0000AUNI","1994-09-10",91.04,73.94,,,
"USR0000AUNI","1994-09-11",87.98,69.98,,,
"USR0000AUNI","1994-09-12",82.94,71.06,,,
"USR0000AUNI","1994-09-13",75.02,60.08,,,
"USR0000AUNI","1994-09-14",82.94,64.04,,,
"USR0000AUNI","1994-09-15",87.08,69.08,,,
"USR0000AUNI","1994-09-16",89.96,69.98,,,
"USR0000AUNI","1994-09-17",87.98,73.94,,,
"USR0000AUNI","1994-09-18",89.96,75.02,,,
"USR0000AUNI","1994-09-19",91.94,71.96,,,
"USR0000AUNI","1994-09-20",87.08,68.00,,,
"USR0000AUNI","1994-09-21",86.00,66.02,,,
"USR0000AUNI","1994-09-22",89.96,66.92,,,
"USR0000AUNI","1994-09-23",91.04,71.96,,,
"USR0000AUNI","1994-09-24",87.08,73.04,,,
"USR0000AUNI","1994-09-25",89.06,71.06,,,
"USR0000AUNI","1994-09-26",91.94,69.98,,,
"USR0000AUNI","1994-09-27",93.92,75.02,,,
"USR0000AUNI","1994-09-28",91.04,73.94,,,
"USR0000AUNI","1994-09-29",84.02,71.06,,,
"USR0000AUNI","1994-09-30",80.06,66.02,,,
"USR0000AUNI","1994-10-01",82.94,64.94,,,
"USR0000AUNI","1994-10-02",84.92,66.92,,,
"USR0000AUNI","1994-10-03",80.06,66.02,,,
"USR0000AUNI","1994-10-04",73.94,60.98,,,
"USR0000AUNI","1994-10-05",60.98,51.98,,,
"USR0000AUNI","1994-10-06",71.06,50.00,,,
"USR0000AUNI","1994-10-07",75.92,59.00,,,
"USR0000AUNI","1994-10-08",80.96,62.96,,,
"USR0000AUNI","1994-10-09",84.02,64.94,,,
"USR0000AUNI","1994-10-10",80.06,66.02,,,
"USR0000AUNI","1994-10-11",78.98,64.04,,,
"USR0000AUNI","1994-10-12",78.08,62.06,,,
"USR0000AUNI","1994-10-13",69.98,57.02,,,
"USR0000AUNI","1994-10-14",69.08,48.92,,,
"USR0000AUNI","1994-10-15",55.94,42.98,,,
"USR0000AUNI","1994-10-16",57.92,42.08,,,
"USR0000AUNI","1994-10-17",64.94,44.96,,,
"USR0000AUNI","1994-10-18",68.00,46.94,,,
"USR0000AUNI","1994-10-19",71.96,53.06,,,
"USR0000AUNI","1994-10-20",71.96,55.04,,,
"USR0000AUNI","1994-10-21",78.08,57.92,,,
"USR0000AUNI","1994-10-22",78.08,60.98,,,
"USR0000AUNI","1994-10-23",75.92,57.02,,,
"USR0000AUNI","1994-10-24",77.00,62.06,,,
"USR0000AUNI","1994-10-25",75.92,60.08,,,
"USR0000AUNI","1994-10-26",78.98,60.98,,,
"USR0000AUNI","1994-10-27",80.96,60.98,,,
"USR0000AUNI","1994-10-28",78.08,62.96,,,
"USR0000AUNI","1994-10-29",75.92,60.98,,,
"USR0000AUNI","1994-10-30",71.06,59.00,,,
"USR0000AUNI","1994-10-31",78.08,57.92,,,
"USR0000AUNI","1994-11-01",73.04,55.94,,,
"USR0000AUNI","1994-11-02",62.06,48.92,,,
"USR0000AUNI","1994-11-03",48.92,35.96,,,
"USR0000AUNI","1994-11-04",53.96,35.96,,,
"USR0000AUNI","1994-11-05",57.92,41.00,,,
"USR0000AUNI","1994-11-06",71.06,48.92,,,
"USR0000AUNI","1994-11-07",64.94,51.08,,,
"USR0000AUNI","1994-11-08",60.98,44.96,,,
"USR0000AUNI","1994-11-09",62.96,46.04,,,
"USR0000AUNI","1994-11-10",60.08,48.92,,,
"USR0000AUNI","1994-11-11",57.92,42.08,,,
"USR0000AUNI","1994-11-12",50.00,39.92,,,
"USR0000AUNI","1994-11-13",51.98,39.02,,,
"USR0000AUNI","1994-11-14",51.98,37.04,,,
"USR0000AUNI","1994-11-15",62.06,41.00,,,
"USR0000AUNI","1994-11-16",53.06,39.02,,,
"USR0000AUNI","1994-11-17",50.00,30.92,,,
"USR0000AUNI","1994-11-18",44.06,28.94,,,
"USR0000AUNI","1994-11-19",42.08,26.06,,,
"USR0000AUNI","1994-11-20",51.98,33.08,,,
"USR0000AUNI","1994-11-21",55.94,35.96,,,
"USR0000AUNI","1994-11-22",53.96,42.98,,,
"USR0000AUNI","1994-11-23",62.06,42.98,,,
"USR0000AUNI","1994-11-24",64.04,44.96,,,
"USR0000AUNI","1994-11-25",60.08,46.94,,,
"USR0000AUNI","1994-11-26",46.94,35.06,,,
"USR0000AUNI","1994-11-27",44.96,30.02,,,
"USR0000AUNI","1994-11-28",48.02,33.98,,,
"USR0000AUNI","1994-11-29",55.94,37.94,,,
"USR0000AUNI","1994-11-30",64.04,46.94,,,
"USR0000AUNI","1994-12-01",66.92,48.92,,,
"USR0000AUNI","1994-12-02",60.98,48.02,,,
"USR0000AUNI","1994-12-03",57.02,46.94,,,
"USR0000AUNI","1994-12-04",59.00,46.04,,,
"USR0000AUNI","1994-12-05",48.02,44.06,,,
"USR0000AUNI","1994-12-06",51.08,44.96,,,
"USR0000AUNI","1994-12-07",53.96,44.06,,,
"USR0000AUNI","1994-12-08",44.96,35.06,,,
"USR0000AUNI","1994-12-09",48.92,33.08,,,
"USR0000AUNI","1994-12-10",51.98,37.94,,,
"USR0000AUNI","1994-12-11",51.98,39.02,,,
"USR0000AUNI","1994-12-12",53.06,41.00,,,
"USR0000AUNI","1994-12-13",48.02,37.04,,,
"USR0000AUNI","1994-12-14",53.06,37.94,,,
"USR0000AUNI","1994-12-15",53.96,37.04,,,
"USR0000AUNI","1994-12-16",64.04,42.98,,,
"USR0000AUNI","1994-12-17",68.00,50.00,,,
"USR0000AUNI","1994-12-18",66.02,50.00,,,
"USR0000AUNI","1994-12-19",66.92,48.92,,,
"USR0000AUNI","1994-12-20",68.00,51.08,,,
"USR0000AUNI","1994-12-21",69.98,51.98,,,
"USR0000AUNI","1994-12-22",62.96,53.96,,,
"USR0000AUNI","1994-12-23",51.98,46.94,,,
"USR0000AUNI","1994-12-24",50.00,46.94,,,
"USR0000AUNI","1994-12-25",51.08,46.04,,,
"USR0000AUNI","1994-12-26",57.92,48.02,,,
"USR0000AUNI","1994-12-27",60.08,44.06,,,
"USR0000AUNI","1994-12-28",48.02,39.92,,,
"USR0000AUNI","1994-12-29",44.96,37.04,,,
"USR0000AUNI","1994-12-30",51.08,37.04,,,
"USR0000AUNI","1994-12-31",48.92,35.96,,,
"USR0000AUNI","1995-01-03",46.04,37.04,,,
"USR0000AUNI","1995-01-04",42.98,37.94,,,
"USR0000AUNI","1995-01-05",48.02,39.02,,,
"USR0000AUNI","1995-01-06",48.92,35.96,,,
"USR0000AUNI","1995-01-07",50.00,39.02,,,
"USR0000AUNI","1995-01-08",55.04,44.96,,,
"USR0000AUNI","1995-01-09",60.08,46.94,,,
"USR0000AUNI","1995-01-10",55.94,44.96,,,
"USR0000AUNI","1995-01-11",51.08,48.02,,,
"USR0000AUNI","1995-01-12",48.02,42.98,,,
"USR0000AUNI","1995-01-13",55.04,44.06,,,
"USR0000AUNI","1995-01-14",57.02,44.96,,,
"USR0000AUNI","1995-01-15",50.00,37.94,,,
"USR0000AUNI","1995-01-16",46.94,33.08,,,
"USR0000AUNI","1995-01-17",46.94,32.00,,,
"USR0000AUNI","1995-01-18",51.98,35.06,,,
"USR0000AUNI","1995-01-19",57.02,37.94,,,
"USR0000AUNI","1995-01-20",55.94,42.98,,,
"USR0000AUNI","1995-01-21",44.96,37.04,,,
"USR0000AUNI","1995-01-22",51.08,35.06,,,
"USR0000AUNI","1995-01-23",50.00,41.00,,,
"USR0000AUNI","1995-01-24",55.94,44.06,,,
"USR0000AUNI","1995-01-25",51.98,39.92,,,
"USR0000AUNI","1995-01-26",50.00,41.00,,,
"USR0000AUNI","1995-01-27",51.98,37.04,,,
"USR0000AUNI","1995-01-28",55.94,42.98,,,
"USR0000AUNI","1995-01-29",57.92,46.94,,,
"USR0000AUNI","1995-01-30",60.08,41.00,,,
"USR0000AUNI","1995-01-31",69.98,46.94,,,
"USR0000AUNI","1995-02-01",73.04,59.00,,,
"USR0000AUNI","1995-02-02",73.94,62.06,,,
"USR0000AUNI","1995-02-03",75.02,59.00,,,
"USR0000AUNI","1995-02-04",73.04,55.94,,,
"USR0000AUNI","1995-02-05",73.94,57.02,,,
"USR0000AUNI","1995-02-06",73.04,53.96,,,
"USR0000AUNI","1995-02-07",64.04,51.98,,,
"USR0000AUNI","1995-02-08",57.92,46.94,,,
"USR0000AUNI","1995-02-09",60.08,44.96,,,
"USR0000AUNI","1995-02-10",60.98,44.96,,,
"USR0000AUNI","1995-02-11",59.00,44.06,,,
"USR0000AUNI","1995-02-12",57.02,42.98,,,
"USR0000AUNI","1995-02-13",53.06,41.00,,,
"USR0000AUNI","1995-02-14",51.08,48.92,,,
"USR0000AUNI","1995-02-15",59.00,41.00,,,
"USR0000AUNI","1995-02-16",62.06,46.94,,,
"USR0000AUNI","1995-02-17",66.92,48.92,,,
"USR0000AUNI","1995-02-18",69.98,51.08,,,
"USR0000AUNI","1995-02-19",73.04,55.94,,,
"USR0000AUNI","1995-02-20",75.02,57.92,,,
"USR0000AUNI","1995-02-21",69.98,53.06,,,
"USR0000AUNI","1995-02-22",62.06,51.08,,,
"USR0000AUNI","1995-02-23",71.06,50.00,,,
"USR0000AUNI","1995-02-24",69.08,48.92,,,
"USR0000AUNI","1995-02-25",64.04,50.00,,,
"USR0000AUNI","1995-02-26",64.94,48.92,,,
"USR0000AUNI","1995-02-27",64.04,50.00,,,
"USR0000AUNI","1995-02-28",60.98,50.00,,,
"USR0000AUNI","1995-03-01",55.94,46.04,,,
"USR0000AUNI","1995-03-02",57.02,42.98,,,
"USR0000AUNI","1995-03-03",55.94,44.96,,,
"USR0000AUNI","1995-03-04",59.00,46.94,,,
"USR0000AUNI","1995-03-05",55.94,51.08,,,
"USR0000AUNI","1995-03-06",53.06,44.96,,,
"USR0000AUNI","1995-03-07",64.04,42.98,,,
"USR0000AUNI","1995-03-08",60.98,48.02,,,
"USR0000AUNI","1995-03-09",64.94,46.94,,,
"USR0000AUNI","1995-03-10",64.94,55.04,,,
"USR0000AUNI","1995-03-11",60.98,44.06,,,
"USR0000AUNI","1995-03-12",57.92,42.08,,,
"USR0000AUNI","1995-03-13",64.04,44.96,,,
"USR0000AUNI","1995-03-14",71.06,53.96,,,
"USR0000AUNI","1995-03-15",75.02,55.04,,,
"USR0000AUNI","1995-03-16",73.94,57.92,,,
"USR0000AUNI","1995-03-17",73.94,57.92,,,
"USR0000AUNI","1995-03-18",71.96,57.92,,,
"USR0000AUNI","1995-03-19",73.94,57.02,,,
"USR0000AUNI","1995-03-20",69.08,57.02,,,
"USR0000AUNI","1995-03-21",62.06,42.08,,,
"USR0000AUNI","1995-03-22",57.02,37.04,,,
"USR0000AUNI","1995-03-23",53.06,35.96,,,
"USR0000AUNI","1995-03-24",48.92,32.00,,,
"USR0000AUNI","1995-03-25",51.08,35.06,,,
"USR0000AUNI","1995-03-26",55.04,41.00,,,
"USR0000AUNI","1995-03-27",57.92,46.04,,,
"USR0000AUNI","1995-03-28",57.02,42.08,,,
"USR0000AUNI","1995-03-29",55.94,42.98,,,
"USR0000AUNI","1995-03-30",60.08,42.98,,,
"USR0000AUNI","1995-03-31",66.92,46.94,,,
"USR0000AUNI","1995-04-01",68.00,53.96,,,
"USR0000AUNI","1995-04-02",68.00,55.04,,,
"USR0000AUNI","1995-04-03",71.06,53.06,,,
"USR0000AUNI","1995-04-04",77.00,60.98,,,
"USR0000AUNI","1995-04-05",77.00,59.00,,,
"USR0000AUNI","1995-04-06",75.02,59.00,,,
"USR0000AUNI","1995-04-07",71.96,55.04,,,
"USR0000AUNI","1995-04-08",69.08,53.96,,,
"USR0000AUNI","1995-04-09",57.02,46.04,,,
"USR0000AUNI","1995-04-10",55.04,41.00,,,
"USR0000AUNI","1995-04-11",69.98,48.92,,,
"USR0000AUNI","1995-04-12",73.04,55.94,,,
"USR0000AUNI","1995-04-13",73.04,51.08,,,
"USR0000AUNI","1995-04-14",60.08,42.08,,,
"USR0000AUNI","1995-04-15",60.98,48.92,,,
"USR0000AUNI","1995-04-16",51.08,35.06,,,
"USR0000AUNI","1995-04-17",53.96,35.06,,,
"USR0000AUNI","1995-04-18",51.98,41.00,,,
"USR0000AUNI","1995-04-19",53.96,37.94,,,
"USR0000AUNI","1995-04-20",59.00,42.08,,,
"USR0000AUNI","1995-04-21",57.02,39.02,,,
"USR0000AUNI","1995-04-22",66.92,50.00,,,
"USR0000AUNI","1995-04-23",69.08,51.08,,,
"USR0000AUNI","1995-04-24",73.94,53.96,,,
"USR0000AUNI","1995-04-25",78.98,57.92,,,
"USR0000AUNI","1995-04-26",80.96,60.98,,,
"USR0000AUNI","1995-04-27",78.08,62.06,,,
"USR0000AUNI","1995-04-28",75.02,57.92,,,
"USR0000AUNI","1995-04-29",80.06,59.00,,,
"USR0000AUNI","1995-04-30",80.06,60.08,,,
"USR0000AUNI","1995-05-01",78.98,57.92,,,
"USR0000AUNI","1995-05-03",77.00,57.02,,,
"USR0000AUNI","1995-05-04",75.92,57.92,,,
"USR0000AUNI","1995-05-05",57.02,46.94,,,
"USR0000AUNI","1995-05-06",57.92,39.92,,,
"USR0000AUNI","1995-05-07",59.00,42.98,,,
"USR0000AUNI","1995-05-08",69.08,46.04,,,
"USR0000AUNI","1995-05-09",73.94,53.06,,,
"USR0000AUNI","1995-05-10",78.08,57.02,,,
"USR0000AUNI","1995-05-11",77.00,60.98,,,
"USR0000AUNI","1995-05-12",69.98,55.94,,,
"USR0000AUNI","1995-05-13",64.94,51.08,,,
"USR0000AUNI","1995-05-14",68.00,48.02,,,
"USR0000AUNI","1995-05-15",71.06,53.06,,,
"USR0000AUNI","1995-05-16",69.98,53.96,,,
"USR0000AUNI","1995-05-17",75.92,48.92,,,
"USR0000AUNI","1995-05-18",80.06,57.92,,,
"USR0000AUNI","1995-05-19",82.04,71.06,,,
"USR0000AUNI","1995-05-20",82.94,66.92,,,
"USR0000AUNI","1995-05-21",82.94,66.02,,,
"USR0000AUNI","1995-05-22",77.00,62.06,,,
"USR0000AUNI","1995-05-23",73.94,55.04,,,
"USR0000AUNI","1995-05-24",71.06,53.06,,,
"USR0000AUNI","1995-05-25",73.94,53.06,,,
"USR0000AUNI","1995-05-26",77.00,57.92,,,
"USR0000AUNI","1995-05-27",78.98,62.06,,,
"USR0000AUNI","1995-05-28",80.96,60.98,,,
"USR0000AUNI","1995-05-29",80.96,62.96,,,
"USR0000AUNI","1995-05-30",89.06,66.92,,,
"USR0000AUNI","1995-05-31",89.96,69.08,,,
"USR0000AUNI","1995-06-01",89.06,71.06,,,
"USR0000AUNI","1995-06-02",80.96,60.98,,,
"USR0000AUNI","1995-06-03",84.02,64.94,,,
"USR0000AUNI","1995-06-04",89.96,68.00,,,
"USR0000AUNI","1995-06-05",87.98,68.00,,,
"USR0000AUNI","1995-06-06",66.02,57.02,,,
"USR0000AUNI","1995-06-19",84.92,71.96,,,
"USR0000AUNI","1995-06-20",87.08,66.92,,,
"USR0000AUNI","1995-06-21",87.08,68.00,,,
"USR0000AUNI","1995-06-22",89.96,75.02,,,
"USR0000AUNI","1995-06-23",93.92,77.00,,,
"USR0000AUNI","1995-06-24",96.08,78.08,,,
"USR0000AUNI","1995-06-25",100.04,80.96,,,
"USR0000AUNI","1995-06-26",98.96,78.98,,,
"USR0000AUNI","1995-06-27",98.06,75.92,,,
"USR0000AUNI","1995-06-28",96.98,77.00,,,
"USR0000AUNI","1995-06-29",93.92,77.00,,,
"USR0000AUNI","1995-06-30",91.04,71.06,,,
"USR0000AUNI","1995-07-01",89.96,71.06,,,
"USR0000AUNI","1995-07-02",89.96,69.08,,,
"USR0000AUNI","1995-07-03",91.04,69.98,,,
"USR0000AUNI","1995-07-04",96.08,71.96,,,
"USR0000AUNI","1995-07-05",96.98,78.08,,,
"USR0000AUNI","1995-07-06",96.98,77.00,,,
"USR0000AUNI","1995-07-07",100.94,78.08,,,
"USR0000AUNI","1995-07-08",102.02,86.00,,,
"USR0000AUNI","1995-07-09",100.04,80.96,,,
"USR0000AUNI","1995-07-10",96.08,82.04,,,
"USR0000AUNI","1995-07-11",91.94,80.96,,,
"USR0000AUNI","1995-07-12",91.94,75.92,,,
"USR0000AUNI","1995-07-13",91.94,75.02,,,
"USR0000AUNI","1995-07-14",95.00,75.02,,,
"USR0000AUNI","1995-07-15",96.08,78.98,,,
"USR0000AUNI","1995-07-16",82.94,71.96,,,
"USR0000AUNI","1995-07-17",91.04,71.96,,,
"USR0000AUNI","1995-07-18",95.00,75.02,,,
"USR0000AUNI","1995-07-19",93.92,75.92,,,
"USR0000AUNI","1995-07-20",93.92,75.92,,,
"USR0000AUNI","1995-07-21",93.92,73.94,,,
"USR0000AUNI","1995-07-22",93.02,71.96,,,
"USR0000AUNI","1995-07-23",96.98,73.04,,,
"USR0000AUNI","1995-07-24",98.96,78.08,,,
"USR0000AUNI","1995-07-25",98.96,80.96,,,
"USR0000AUNI","1995-07-26",102.92,78.98,,,
"USR0000AUNI","1995-07-27",105.98,87.98,,,
"USR0000AUNI","1995-07-28",109.04,93.02,,,
"USR0000AUNI","1995-07-29",107.06,86.00,,,
"USR0000AUNI","1995-07-30",104.00,84.92,,,
"USR0000AUNI","1995-07-31",100.04,80.96,,,
"USR0000AUNI","1995-08-01",105.08,84.02,,,
"USR0000AUNI","1995-08-02",104.00,84.92,,,
"USR0000AUNI","1995-08-03",102.92,84.02,,,
"USR0000AUNI","1995-08-04",100.94,84.02,,,
"USR0000AUNI","1995-08-05",100.04,84.02,,,
"USR0000AUNI","1995-08-06",102.02,80.96,,,
"USR0000AUNI","1995-08-07",102.92,84.92,,,
"USR0000AUNI","1995-08-08",100.94,82.94,,,
"USR0000AUNI","1995-08-09",102.02,82.94,,,
"USR0000AUNI","1995-08-10",98.06,78.98,,,
"USR0000AUNI","1995-08-11",96.08,80.06,,,
"USR0000AUNI","1995-08-12",91.94,75.02,,,
"USR0000AUNI","1995-08-13",98.96,78.98,,,
"USR0000AUNI","1995-08-14",98.06,80.06,,,
"USR0000AUNI","1995-08-15",89.06,71.96,,,
"USR0000AUNI","1995-08-16",89.06,71.96,,,
"USR0000AUNI","1995-08-17",91.04,71.06,,,
"USR0000AUNI","1995-08-18",93.02,73.04,,,
"USR0000AUNI","1995-08-19",95.00,75.92,,,
"USR0000AUNI","1995-08-20",89.06,73.94,,,
"USR0000AUNI","1995-08-21",91.04,73.94,,,
"USR0000AUNI","1995-08-22",96.98,77.00,,,
"USR0000AUNI","1995-08-23",98.06,78.08,,,
"USR0000AUNI","1995-08-24",91.04,73.94,,,
"USR0000AUNI","1995-08-25",95.00,73.94,,,
"USR0000AUNI","1995-08-26",95.00,75.92,,,
"USR0000AUNI","1995-08-27",96.08,78.08,,,
"USR0000AUNI","1995-08-28",96.98,78.08,,,
"USR0000AUNI","1995-08-29",98.96,80.06,,,
"USR0000AUNI","1995-08-30",100.04,80.06,,,
"USR0000AUNI","1995-08-31",100.94,80.96,,,
"USR0000AUNI","1995-09-01",98.96,84.92,,,
"USR0000AUNI","1995-09-02",100.94,82.04,,,
"USR0000AUNI","1995-09-03",100.04,82.04,,,
"USR0000AUNI","1995-09-04",96.98,78.98,,,
"USR0000AUNI","1995-09-05",93.02,78.98,,,
"USR0000AUNI","1995-09-06",93.02,73.94,,,
"USR0000AUNI","1995-09-07",89.96,73.04,,,
"USR0000AUNI","1995-09-08",91.04,75.02,,,
"USR0000AUNI","1995-09-09",89.96,73.04,,,
"USR0000AUNI","1995-09-10",89.06,71.96,,,
"USR0000AUNI","1995-09-11",93.02,71.96,,,
"USR0000AUNI","1995-09-12",95.00,73.94,,,
"USR0000AUNI","1995-09-13",98.06,80.96,,,
"USR0000AUNI","1995-09-14",95.00,78.98,,,
"USR0000AUNI","1995-09-15",96.08,75.92,,,
"USR0000AUNI","1995-09-16",89.96,66.92,,,
"USR0000AUNI","1995-09-17",89.06,69.98,,,
"USR0000AUNI","1995-09-18",91.04,71.06,,,
"USR0000AUNI","1995-09-19",91.94,75.92,,,
"USR0000AUNI","1995-09-20",91.94,71.96,,,
"USR0000AUNI","1995-09-21",87.08,73.04,,,
"USR0000AUNI","1995-09-22",91.04,69.98,,,
"USR0000AUNI","1995-09-23",87.08,71.96,,,
"USR0000AUNI","1995-09-24",87.98,66.02,,,
"USR0000AUNI","1995-09-25",84.92,69.08,,,
"USR0000AUNI","1995-09-26",84.02,64.94,,,
"USR0000AUNI","1995-09-27",84.02,69.08,,,
"USR0000AUNI","1995-09-28",80.06,64.94,,,
"USR0000AUNI","1995-09-29",78.98,57.92,,,
"USR0000AUNI","1995-09-30",75.92,60.98,,,
"USR0000AUNI","1995-10-01",84.02,64.94,,,
"USR0000AUNI","1995-10-02",86.00,69.08,,,
"USR0000AUNI","1995-10-03",86.00,69.98,,,
"USR0000AUNI","1995-10-04",71.96,57.92,,,
"USR0000AUNI","1995-10-05",73.94,51.98,,,
"USR0000AUNI","1995-10-06",77.00,59.00,,,
"USR0000AUNI","1995-10-07",80.06,60.08,,,
"USR0000AUNI","1995-10-08",80.96,60.98,,,
"USR0000AUNI","1995-10-09",82.94,62.96,,,
"USR0000AUNI","1995-10-10",84.92,66.02,,,
"USR0000AUNI","1995-10-11",87.98,69.08,,,
"USR0000AUNI","1995-10-12",84.92,66.92,,,
"USR0000AUNI","1995-10-13",80.06,64.04,,,
"USR0000AUNI","1995-10-14",87.98,69.98,,,
"USR0000AUNI","1995-10-15",87.08,68.00,,,
"USR0000AUNI","1995-10-16",82.94,64.04,,,
"USR0000AUNI","1995-10-17",87.08,69.98,,,
"USR0000AUNI","1995-10-18",82.94,66.92,,,
"USR0000AUNI","1995-10-19",84.02,64.94,,,
"USR0000AUNI","1995-10-20",87.08,69.08,,,
"USR0000AUNI","1995-10-21",82.04,66.02,,,
"USR0000AUNI","1995-10-22",68.00,48.92,,,
"USR0000AUNI","1995-10-23",64.94,46.94,,,
"USR0000AUNI","1995-10-24",71.96,48.92,,,
"USR0000AUNI","1995-10-25",75.02,53.96,,,
"USR0000AUNI","1995-10-26",78.08,59.00,,,
"USR0000AUNI","1995-10-27",82.04,64.94,,,
"USR0000AUNI","1995-10-28",80.96,64.04,,,
"USR0000AUNI","1995-10-29",77.00,64.94,,,
"USR0000AUNI","1995-10-30",75.02,60.98,,,
"USR0000AUNI","1995-10-31",69.08,53.96,,,
"USR0000AUNI","1995-11-01",64.04,51.98,,,
"USR0000AUNI","1995-11-02",66.92,48.92,,,
"USR0000AUNI","1995-11-03",69.08,51.98,,,
"USR0000AUNI","1995-11-04",69.08,53.96,,,
"USR0000AUNI","1995-11-05",68.00,53.96,,,
"USR0000AUNI","1995-11-06",66.02,50.00,,,
"USR0000AUNI","1995-11-07",71.96,53.06,,,
"USR0000AUNI","1995-11-08",78.08,57.02,,,
"USR0000AUNI","1995-11-09",71.96,60.98,,,
"USR0000AUNI","1995-11-10",71.06,51.98,,,
"USR0000AUNI","1995-11-11",71.96,57.92,,,
"USR0000AUNI","1995-11-12",75.92,53.96,,,
"USR0000AUNI","1995-11-13",80.96,62.96,,,
"USR0000AUNI","1995-11-14",78.98,64.04,,,
"USR0000AUNI","1995-11-15",78.98,64.04,,,
"USR0000AUNI","1995-11-16",78.08,60.98,,,
"USR0000AUNI","1995-11-17",80.06,60.08,,,
"USR0000AUNI","1995-11-18",75.92,60.98,,,
"USR0000AUNI","1995-11-19",75.02,59.00,,,
"USR0000AUNI","1995-11-20",78.08,59.00,,,
"USR0000AUNI","1995-11-21",73.94,60.08,,,
"USR0000AUNI","1995-11-22",75.02,55.04,,,
"USR0000AUNI","1995-11-23",78.08,60.98,,,
"USR0000AUNI","1995-11-24",78.08,62.06,,,
"USR0000AUNI","1995-11-25",75.92,60.98,,,
"USR0000AUNI","1995-11-26",69.98,48.92,,,
"USR0000AUNI","1995-11-27",53.06,42.98,,,
"USR0000AUNI","1995-11-28",62.06,42.08,,,
"USR0000AUNI","1995-11-29",75.02,53.06,,,
"USR0000AUNI","1995-11-30",73.94,55.94,,,
"USR0000AUNI","1995-12-01",71.06,55.94,,,
"USR0000AUNI","1995-12-02",66.92,53.06,,,
"USR0000AUNI","1995-12-03",66.92,50.00,,,
"USR0000AUNI","1995-12-04",68.00,53.06,,,
"USR0000AUNI","1995-12-05",69.98,53.06,,,
"USR0000AUNI","1995-12-06",68.00,51.98,,,
"USR0000AUNI","1995-12-07",64.94,51.98,,,
"USR0000AUNI","1995-12-08",64.04,51.08,,,
"USR0000AUNI","1995-12-09",69.98,53.06,,,
"USR0000AUNI","1995-12-10",69.98,51.98,,,
"USR0000AUNI","1995-12-11",66.92,51.98,,,
"USR0000AUNI","1995-12-12",64.04,57.02,,,
"USR0000AUNI","1995-12-13",60.98,50.00,,,